When you browse on this site, cookies collect data to enhance your experience and personalize the content and advertising you see.
Visit our Privacy Policy to learn more. By continuing to use the site, you agree to this use of cookies and data.
  • In Österreich
  • Länderverzeichnis
  • Für 7 Tage
  • Wassertemperatur
  • Satellitenkarten
  • Wetterkarte
  • News
  • Widgets
  • user-avatar
    Anmelden

    Stündliche Wetter Semmering

    Heute, 20 Februar, Mittwoch

    Zeit Temperatur Niederschläge Wind Luftdruck Luftfeuchtigkeit
    00:00 +1°C° 0 mm 1 m/S 665 mmHg 82%
    01:00 +2°C° 0 mm 1 m/S 665 mmHg 84%
    02:00 +2°C° 0.2 mm 1 m/S 665 mmHg 86%
    03:00 +2°C° 0.2 mm 1 m/S 665 mmHg 89%
    04:00 +2°C° 0.2 mm 1 m/S 666 mmHg 92%
    05:00 +2°C° 0 mm 1 m/S 666 mmHg 92%
    06:00 +1°C° 0 mm 1 m/S 666 mmHg 93%
    07:00 +1°C° 0 mm 1 m/S 666 mmHg 94%
    08:00 +2°C° 0 mm 1 m/S 666 mmHg 88%
    09:00 +3°C° 0 mm 1 m/S 667 mmHg 83%
    10:00 +5°C° 0 mm 1 m/S 667 mmHg 77%
    11:00 +5°C° 0 mm 1 m/S 668 mmHg 75%
    12:00 +5°C° 0 mm 1 m/S 668 mmHg 74%
    13:00 +5°C° 0 mm 2 m/S 668 mmHg 72%
    14:00 +6°C° 0 mm 1 m/S 668 mmHg 73%
    15:00 +6°C° 0 mm 1 m/S 667 mmHg 74%
    16:00 +5°C° 0 mm 1 m/S 667 mmHg 76%
    17:00 +4°C° 0 mm 1 m/S 667 mmHg 80%
    18:00 +3°C° 0 mm 1 m/S 667 mmHg 85%
    19:00 +1°C° 0 mm 1 m/S 667 mmHg 90%
    20:00 +1°C° 0 mm 1 m/S 667 mmHg 90%
    21:00 +1°C° 0 mm 1 m/S 668 mmHg 90%
    22:00 +1°C° 0 mm 1 m/S 668 mmHg 90%
    23:00 +1°C° 0 mm 1 m/S 668 mmHg 91%

    Morgen, 21 Februar, Donnerstag

    Zeit Temperatur Niederschläge Wind Luftdruck Luftfeuchtigkeit
    00:00 +1°C° 0 mm 1 m/S 668 mmHg 91%
    01:00 0°C° 0 mm 1 m/S 668 mmHg 92%
    02:00 +1°C° 0 mm 1 m/S 668 mmHg 92%
    03:00 +1°C° 0 mm 1 m/S 668 mmHg 92%
    04:00 +1°C° 0 mm 1 m/S 668 mmHg 92%
    05:00 +1°C° 0 mm 1 m/S 668 mmHg 92%
    06:00 0°C° 0 mm 1 m/S 668 mmHg 92%
    07:00 0°C° 0 mm 1 m/S 668 mmHg 92%
    08:00 +2°C° 0 mm 1 m/S 669 mmHg 87%
    09:00 +4°C° 0 mm 1 m/S 670 mmHg 81%
    10:00 +5°C° 0 mm 1 m/S 670 mmHg 75%
    11:00 +6°C° 0 mm 1 m/S 670 mmHg 71%
    12:00 +7°C° 0 mm 1 m/S 670 mmHg 66%
    13:00 +7°C° 0 mm 2 m/S 670 mmHg 62%
    14:00 +8°C° 0 mm 1 m/S 670 mmHg 64%
    15:00 +7°C° 0 mm 1 m/S 669 mmHg 66%
    16:00 +7°C° 0 mm 1 m/S 669 mmHg 68%
    17:00 +6°C° 0 mm 1 m/S 669 mmHg 73%
    18:00 +4°C° 0 mm 1 m/S 669 mmHg 78%
    19:00 +3°C° 0 mm 1 m/S 668 mmHg 84%
    20:00 +2°C° 0 mm 2 m/S 669 mmHg 85%
    21:00 +2°C° 0 mm 2 m/S 669 mmHg 87%
    22:00 +1°C° 0 mm 3 m/S 669 mmHg 88%
    23:00 +1°C° 0 mm 3 m/S 669 mmHg 88%

    übermorgen, 22 Februar, Freitag

    Zeit Temperatur Niederschläge Wind Luftdruck Luftfeuchtigkeit
    00:00 0°C° 0 mm 4 m/S 669 mmHg 88%
    01:00 0°C° 0 mm 5 m/S 669 mmHg 87%
    02:00 0°C° 0 mm 5 m/S 669 mmHg 87%
    03:00 0°C° 0 mm 5 m/S 669 mmHg 86%
    04:00 0°C° 0 mm 5 m/S 668 mmHg 85%
    05:00 0°C° 0.1 mm 5 m/S 669 mmHg 85%
    06:00 0°C° 0.1 mm 5 m/S 669 mmHg 86%
    07:00 0°C° 0.1 mm 5 m/S 669 mmHg 87%
    08:00 0°C° 0.4 mm 5 m/S 669 mmHg 85%
    09:00 -1°C° 0.4 mm 6 m/S 669 mmHg 84%
    10:00 +1°C° 0.4 mm 6 m/S 669 mmHg 83%
    11:00 0°C° 0.2 mm 7 m/S 669 mmHg 82%
    12:00 0°C° 0.2 mm 7 m/S 670 mmHg 81%
    13:00 0°C° 0.2 mm 7 m/S 670 mmHg 80%
    14:00 0°C° 0.1 mm 7 m/S 670 mmHg 80%
    15:00 +1°C° 0.1 mm 6 m/S 670 mmHg 81%
    16:00 -1°C° 0.1 mm 6 m/S 670 mmHg 81%
    17:00 0°C° 0.1 mm 5 m/S 671 mmHg 82%
    18:00 -1°C° 0.1 mm 5 m/S 671 mmHg 83%
    19:00 -2°C° 0.1 mm 5 m/S 672 mmHg 84%
    20:00 -3°C° 0 mm 4 m/S 672 mmHg 83%
    21:00 -4°C° 0 mm 4 m/S 672 mmHg 82%
    22:00 -5°C° 0 mm 3 m/S 673 mmHg 82%
    23:00 -6°C° 0 mm 3 m/S 673 mmHg 82%

    23 Februar, Samstag

    Zeit Temperatur Niederschläge Wind Luftdruck Luftfeuchtigkeit
    00:00 -6°C° 0 mm 2 m/S 673 mmHg 83%
    01:00 -7°C° 0 mm 2 m/S 673 mmHg 83%
    02:00 -7°C° 0 mm 2 m/S 673 mmHg 81%
    03:00 -6°C° 0 mm 1 m/S 673 mmHg 79%
    04:00 -6°C° 0 mm 1 m/S 673 mmHg 78%
    05:00 -7°C° 0 mm 1 m/S 673 mmHg 75%
    06:00 -7°C° 0 mm 1 m/S 673 mmHg 72%
    07:00 -7°C° 0 mm 0 m/S 673 mmHg 70%
    08:00 -5°C° 0 mm 0 m/S 674 mmHg 59%
    09:00 -3°C° 0 mm 0 m/S 674 mmHg 49%
    10:00 -1°C° 0 mm 0 m/S 675 mmHg 39%
    11:00 +1°C° 0 mm 1 m/S 675 mmHg 35%
    12:00 +1°C° 0 mm 1 m/S 675 mmHg 32%
    13:00 +2°C° 0 mm 1 m/S 674 mmHg 29%
    14:00 +2°C° 0 mm 1 m/S 674 mmHg 31%
    15:00 -1°C° 0 mm 2 m/S 673 mmHg 34%
    16:00 -1°C° 0 mm 2 m/S 673 mmHg 37%
    17:00 0°C° 0 mm 1 m/S 673 mmHg 43%
    18:00 -2°C° 0 mm 1 m/S 672 mmHg 48%
    19:00 -4°C° 0 mm 1 m/S 672 mmHg 54%
    20:00 -3°C° 0 mm 1 m/S 672 mmHg 52%
    21:00 -3°C° 0 mm 1 m/S 672 mmHg 50%
    22:00 -3°C° 0 mm 1 m/S 672 mmHg 48%
    23:00 -3°C° 0 mm 1 m/S 672 mmHg 47%

    24 Februar, Sonntag

    Zeit Temperatur Niederschläge Wind Luftdruck Luftfeuchtigkeit
    00:00 -2°C° 0 mm 1 m/S 672 mmHg 46%
    01:00 -2°C° 0 mm 1 m/S 672 mmHg 44%
    02:00 -2°C° 0 mm 1 m/S 671 mmHg 46%
    03:00 -5°C° 0 mm 2 m/S 671 mmHg 47%
    04:00 -5°C° 0 mm 2 m/S 671 mmHg 48%
    05:00 -5°C° 0 mm 2 m/S 671 mmHg 50%
    06:00 -5°C° 0 mm 2 m/S 670 mmHg 52%
    07:00 -5°C° 0 mm 2 m/S 670 mmHg 54%
    08:00 -5°C° 0 mm 3 m/S 671 mmHg 52%
    09:00 -2°C° 0 mm 3 m/S 672 mmHg 50%
    10:00 -2°C° 0 mm 4 m/S 673 mmHg 49%
    11:00 0°C° 0 mm 3 m/S 672 mmHg 51%
    12:00 0°C° 0 mm 3 m/S 672 mmHg 53%
    13:00 +1°C° 0 mm 3 m/S 672 mmHg 55%
    14:00 +1°C° 0 mm 3 m/S 672 mmHg 57%
    15:00 0°C° 0 mm 3 m/S 672 mmHg 60%
    16:00 0°C° 0 mm 3 m/S 672 mmHg 62%
    17:00 -1°C° 0 mm 3 m/S 672 mmHg 69%
    18:00 -3°C° 0 mm 2 m/S 672 mmHg 76%
    19:00 -4°C° 0 mm 2 m/S 672 mmHg 83%
    20:00 -4°C° 0 mm 2 m/S 672 mmHg 84%
    21:00 -4°C° 0 mm 2 m/S 673 mmHg 85%
    22:00 -4°C° 0 mm 2 m/S 673 mmHg 86%
    23:00 -4°C° 0 mm 2 m/S 673 mmHg 89%

    25 Februar, Montag

    Zeit Temperatur Niederschläge Wind Luftdruck Luftfeuchtigkeit
    00:00 -5°C° 0 mm 2 m/S 673 mmHg 91%
    01:00 -5°C° 0 mm 2 m/S 673 mmHg 93%
    02:00 -5°C° 0 mm 2 m/S 673 mmHg 93%
    03:00 -5°C° 0 mm 2 m/S 672 mmHg 93%
    04:00 -6°C° 0 mm 2 m/S 672 mmHg 93%
    05:00 -6°C° 0 mm 2 m/S 672 mmHg 91%
    06:00 -5°C° 0 mm 2 m/S 672 mmHg 89%
    07:00 -3°C° 0 mm 1 m/S 672 mmHg 87%
    08:00 -3°C° 0 mm 2 m/S 673 mmHg 77%
    09:00 -2°C° 0 mm 2 m/S 673 mmHg 67%
    10:00 +1°C° 0 mm 2 m/S 674 mmHg 57%
    11:00 +2°C° 0 mm 2 m/S 674 mmHg 54%
    12:00 +3°C° 0 mm 2 m/S 674 mmHg 51%
    13:00 +4°C° 0 mm 2 m/S 673 mmHg 49%
    14:00 +3°C° 0 mm 2 m/S 673 mmHg 51%
    15:00 +3°C° 0 mm 2 m/S 672 mmHg 54%
    16:00 +3°C° 0 mm 2 m/S 672 mmHg 57%
    17:00 +1°C° 0 mm 2 m/S 671 mmHg 63%
    18:00 -1°C° 0 mm 2 m/S 671 mmHg 70%
    19:00 -3°C° 0 mm 2 m/S 671 mmHg 76%
    20:00 -4°C° 0 mm 3 m/S 671 mmHg 76%
    21:00 -4°C° 0 mm 3 m/S 671 mmHg 75%
    22:00 -4°C° 0 mm 3 m/S 671 mmHg 75%
    23:00 -4°C° 0 mm 4 m/S 671 mmHg 76%
    Mehr zeigen